When you browse on this site, cookies collect data to enhance your experience and personalize the content and advertising you see.
Visit our Privacy Policy to learn more. By continuing to use the site, you agree to this use of cookies and data.
  • In Sweden
  • List of Countries
  • For 7 days
  • Water Temperature
  • Satellite Maps
  • Weather Map
  • Weather Widgets
  • user-avatar
    Login

    Hourly Weather Bishkul

    Today, 18 June, Tuesday

    Time Temperature Precipitation Wind Pressure Humidity
    00:00 +8°C° 0 mm 2 mps 744 mmHg 87%
    01:00 +7°C° 0 mm 2 mps 744 mmHg 87%
    02:00 +7°C° 0 mm 2 mps 743 mmHg 87%
    03:00 +7°C° 0 mm 2 mps 744 mmHg 87%
    04:00 +7°C° 0 mm 2 mps 744 mmHg 86%
    05:00 +7°C° 0 mm 2 mps 744 mmHg 86%
    06:00 +9°C° 0 mm 2 mps 744 mmHg 82%
    07:00 +12°C° 0 mm 2 mps 744 mmHg 77%
    08:00 +13°C° 0 mm 2 mps 744 mmHg 73%
    09:00 +15°C° 0.1 mm 2 mps 744 mmHg 67%
    10:00 +16°C° 0.1 mm 2 mps 744 mmHg 62%
    11:00 +17°C° 0.1 mm 3 mps 744 mmHg 56%
    12:00 +17°C° 0.2 mm 3 mps 744 mmHg 58%
    13:00 +17°C° 0.2 mm 3 mps 743 mmHg 60%
    14:00 +17°C° 0.2 mm 4 mps 743 mmHg 61%
    15:00 +17°C° 0.7 mm 4 mps 743 mmHg 65%
    16:00 +17°C° 0.7 mm 4 mps 743 mmHg 69%
    17:00 +15°C° 0.7 mm 4 mps 743 mmHg 73%
    18:00 +15°C° 0.2 mm 4 mps 743 mmHg 77%
    19:00 +14°C° 0.2 mm 3 mps 743 mmHg 81%
    20:00 +14°C° 0.2 mm 2 mps 743 mmHg 85%
    21:00 +12°C° 0 mm 3 mps 743 mmHg 86%
    22:00 +11°C° 0 mm 3 mps 744 mmHg 88%
    23:00 +10°C° 0 mm 3 mps 744 mmHg 90%

    Tomorrow, 19 June, Wednesday

    Time Temperature Precipitation Wind Pressure Humidity
    00:00 +9°C° 0 mm 3 mps 744 mmHg 92%
    01:00 +9°C° 0 mm 3 mps 745 mmHg 94%
    02:00 +9°C° 0 mm 3 mps 745 mmHg 96%
    03:00 +9°C° 0 mm 3 mps 745 mmHg 95%
    04:00 +8°C° 0 mm 3 mps 746 mmHg 94%
    05:00 +8°C° 0 mm 3 mps 746 mmHg 93%
    06:00 +10°C° 0 mm 3 mps 746 mmHg 88%
    07:00 +11°C° 0 mm 3 mps 747 mmHg 82%
    08:00 +12°C° 0 mm 4 mps 747 mmHg 76%
    09:00 +14°C° 0 mm 4 mps 747 mmHg 69%
    10:00 +16°C° 0 mm 3 mps 747 mmHg 61%
    11:00 +17°C° 0 mm 3 mps 748 mmHg 54%
    12:00 +18°C° 0 mm 4 mps 748 mmHg 54%
    13:00 +19°C° 0 mm 4 mps 748 mmHg 54%
    14:00 +19°C° 0 mm 4 mps 748 mmHg 54%
    15:00 +19°C° 0.1 mm 4 mps 748 mmHg 56%
    16:00 +19°C° 0.1 mm 4 mps 748 mmHg 59%
    17:00 +19°C° 0.1 mm 5 mps 748 mmHg 61%
    18:00 +18°C° 0.1 mm 4 mps 749 mmHg 66%
    19:00 +17°C° 0.1 mm 3 mps 749 mmHg 72%
    20:00 +16°C° 0.1 mm 3 mps 749 mmHg 77%
    21:00 +14°C° 0 mm 3 mps 749 mmHg 79%
    22:00 +13°C° 0 mm 3 mps 749 mmHg 81%
    23:00 +13°C° 0 mm 2 mps 750 mmHg 82%

    Day after tomorrow, 20 June, Thursday

    Time Temperature Precipitation Wind Pressure Humidity
    00:00 +14°C° 0 mm 2 mps 750 mmHg 83%
    01:00 +14°C° 0 mm 2 mps 750 mmHg 83%
    02:00 +14°C° 0 mm 2 mps 750 mmHg 83%
    03:00 +14°C° 0 mm 2 mps 750 mmHg 85%
    04:00 +13°C° 0 mm 2 mps 750 mmHg 86%
    05:00 +13°C° 0 mm 2 mps 750 mmHg 88%
    06:00 +13°C° 0 mm 3 mps 751 mmHg 84%
    07:00 +16°C° 0 mm 3 mps 751 mmHg 79%
    08:00 +17°C° 0 mm 4 mps 751 mmHg 75%
    09:00 +18°C° 0 mm 4 mps 751 mmHg 71%
    10:00 +18°C° 0 mm 4 mps 751 mmHg 68%
    11:00 +19°C° 0 mm 4 mps 751 mmHg 65%
    12:00 +20°C° 0 mm 5 mps 751 mmHg 62%
    13:00 +21°C° 0 mm 5 mps 751 mmHg 60%
    14:00 +22°C° 0 mm 6 mps 751 mmHg 57%
    15:00 +22°C° 0.3 mm 5 mps 751 mmHg 62%
    16:00 +21°C° 0.3 mm 4 mps 750 mmHg 66%
    17:00 +21°C° 0.3 mm 3 mps 750 mmHg 71%
    18:00 +20°C° 0.1 mm 3 mps 750 mmHg 73%
    19:00 +19°C° 0.1 mm 3 mps 750 mmHg 76%
    20:00 +18°C° 0.1 mm 2 mps 750 mmHg 78%
    21:00 +17°C° 0 mm 3 mps 750 mmHg 79%
    22:00 +17°C° 0 mm 4 mps 750 mmHg 79%
    23:00 +15°C° 0 mm 4 mps 750 mmHg 80%

    21 June, Friday

    Time Temperature Precipitation Wind Pressure Humidity
    00:00 +15°C° 0 mm 5 mps 749 mmHg 78%
    01:00 +14°C° 0 mm 5 mps 749 mmHg 76%
    02:00 +14°C° 0 mm 5 mps 749 mmHg 75%
    03:00 +14°C° 0 mm 5 mps 749 mmHg 75%
    04:00 +14°C° 0 mm 5 mps 748 mmHg 75%
    05:00 +14°C° 0 mm 5 mps 748 mmHg 76%
    06:00 +15°C° 0.2 mm 5 mps 748 mmHg 76%
    07:00 +16°C° 0.2 mm 5 mps 748 mmHg 76%
    08:00 +17°C° 0.2 mm 6 mps 748 mmHg 76%
    09:00 +20°C° 0.2 mm 6 mps 748 mmHg 72%
    10:00 +22°C° 0.2 mm 5 mps 748 mmHg 69%
    11:00 +23°C° 0.2 mm 5 mps 748 mmHg 65%
    12:00 +23°C° 1 mm 6 mps 747 mmHg 66%
    13:00 +23°C° 1 mm 6 mps 747 mmHg 66%
    14:00 +23°C° 1 mm 7 mps 747 mmHg 67%
    15:00 +23°C° 0.4 mm 7 mps 747 mmHg 68%
    16:00 +23°C° 0.4 mm 6 mps 747 mmHg 68%
    17:00 +22°C° 0.4 mm 6 mps 747 mmHg 69%
    18:00 +21°C° 0.2 mm 5 mps 747 mmHg 72%
    19:00 +20°C° 0.2 mm 5 mps 747 mmHg 75%
    20:00 +18°C° 0.2 mm 4 mps 748 mmHg 79%
    21:00 +17°C° 0 mm 4 mps 748 mmHg 81%
    22:00 +15°C° 0 mm 4 mps 748 mmHg 84%
    23:00 +14°C° 0 mm 4 mps 749 mmHg 87%

    22 June, Saturday

    Time Temperature Precipitation Wind Pressure Humidity
    00:00 +13°C° 0 mm 4 mps 749 mmHg 89%
    01:00 +13°C° 0 mm 4 mps 750 mmHg 91%
    02:00 +12°C° 0 mm 4 mps 750 mmHg 93%
    03:00 +11°C° 0 mm 3 mps 750 mmHg 93%
    04:00 +11°C° 0 mm 3 mps 751 mmHg 92%
    05:00 +11°C° 0 mm 3 mps 751 mmHg 91%
    06:00 +12°C° 0 mm 3 mps 752 mmHg 83%
    07:00 +13°C° 0 mm 3 mps 752 mmHg 74%
    08:00 +14°C° 0 mm 4 mps 752 mmHg 66%
    09:00 +15°C° 0 mm 4 mps 753 mmHg 63%
    10:00 +17°C° 0 mm 4 mps 753 mmHg 59%
    11:00 +17°C° 0 mm 5 mps 753 mmHg 56%
    12:00 +19°C° 0.1 mm 5 mps 753 mmHg 56%
    13:00 +19°C° 0.1 mm 5 mps 753 mmHg 56%
    14:00 +20°C° 0.1 mm 5 mps 753 mmHg 55%
    15:00 +20°C° 0 mm 5 mps 753 mmHg 55%
    16:00 +19°C° 0 mm 5 mps 753 mmHg 55%
    17:00 +19°C° 0 mm 6 mps 753 mmHg 54%
    18:00 +17°C° 0 mm 5 mps 753 mmHg 60%
    19:00 +17°C° 0 mm 4 mps 753 mmHg 65%
    20:00 +16°C° 0 mm 3 mps 753 mmHg 70%
    21:00 +13°C° 0 mm 3 mps 754 mmHg 69%
    22:00 +13°C° 0 mm 2 mps 754 mmHg 68%
    23:00 +12°C° 0 mm 2 mps 754 mmHg 67%

    23 June, Sunday

    Time Temperature Precipitation Wind Pressure Humidity
    00:00 +13°C° 0 mm 2 mps 754 mmHg 65%
    01:00 +13°C° 0 mm 2 mps 754 mmHg 63%
    02:00 +14°C° 0 mm 2 mps 754 mmHg 61%
    03:00 +13°C° 0.1 mm 2 mps 754 mmHg 69%
    04:00 +12°C° 0.1 mm 3 mps 754 mmHg 77%
    05:00 +12°C° 0.1 mm 3 mps 754 mmHg 86%
    06:00 +12°C° 0.3 mm 3 mps 754 mmHg 88%
    07:00 +12°C° 0.3 mm 3 mps 754 mmHg 91%
    08:00 +12°C° 0.3 mm 4 mps 754 mmHg 93%
    09:00 +12°C° 0.2 mm 4 mps 754 mmHg 93%
    10:00 +13°C° 0.2 mm 4 mps 754 mmHg 92%
    11:00 +13°C° 0.2 mm 4 mps 753 mmHg 91%
    12:00 +14°C° 0 mm 3 mps 753 mmHg 88%
    13:00 +16°C° 0 mm 3 mps 753 mmHg 85%
    14:00 +17°C° 0 mm 2 mps 753 mmHg 82%
    15:00 +18°C° 0 mm 2 mps 753 mmHg 80%
    16:00 +19°C° 0 mm 2 mps 752 mmHg 79%
    17:00 +20°C° 0 mm 2 mps 752 mmHg 77%
    18:00 +20°C° 0 mm 2 mps 752 mmHg 80%
    19:00 +19°C° 0 mm 2 mps 752 mmHg 83%
    20:00 +18°C° 0 mm 2 mps 751 mmHg 87%
    21:00 +17°C° 0 mm 2 mps 751 mmHg 88%
    22:00 +16°C° 0 mm 2 mps 751 mmHg 90%
    23:00 +15°C° 0 mm 2 mps 751 mmHg 92%
    Show more